Year,Month,Day,Hour,Minute,Value (Times are PST for windspeed in km/hr)
2012,03,12,00,00,13.90
2012,03,12,00,01,17.70
2012,03,12,00,02,13.20
2012,03,12,00,03,25.20
2012,03,12,00,04,18.80
2012,03,12,00,05,18.80
2012,03,12,00,06,13.60
2012,03,12,00,07,16.30
2012,03,12,00,08,20.90
2012,03,12,00,09,14.60
2012,03,12,00,10,14.90
2012,03,12,00,11,11.20
2012,03,12,00,12,13.90
2012,03,12,00,13,16.90
2012,03,12,00,14,9.00
2012,03,12,00,15,13.00
2012,03,12,00,16,12.70
2012,03,12,00,17,17.30
2012,03,12,00,18,10.10
2012,03,12,00,19,10.90
2012,03,12,00,20,18.30
2012,03,12,00,21,17.60
2012,03,12,00,22,12.50
2012,03,12,00,23,15.10
2012,03,12,00,24,19.10
2012,03,12,00,25,19.90
2012,03,12,00,26,13.40
2012,03,12,00,27,20.90
2012,03,12,00,28,18.10
2012,03,12,00,29,17.70
2012,03,12,00,30,12.50
2012,03,12,00,31,16.30
2012,03,12,00,32,16.30
2012,03,12,00,33,16.90
2012,03,12,00,34,17.00
2012,03,12,00,35,11.50
2012,03,12,00,36,15.10
2012,03,12,00,37,18.90
2012,03,12,00,38,21.10
2012,03,12,00,39,30.00
2012,03,12,00,40,12.50
2012,03,12,00,41,17.80
2012,03,12,00,42,14.80
2012,03,12,00,43,16.70
2012,03,12,00,44,11.40
2012,03,12,00,45,17.50
2012,03,12,00,46,10.90
2012,03,12,00,47,12.80
2012,03,12,00,48,9.80
2012,03,12,00,49,7.60
2012,03,12,00,50,13.60
2012,03,12,00,51,10.40
2012,03,12,00,52,12.40
2012,03,12,00,53,9.20
2012,03,12,00,54,9.70
2012,03,12,00,55,10.80
2012,03,12,00,56,12.50
2012,03,12,00,57,17.50
2012,03,12,00,58,12.90
2012,03,12,00,59,15.50
2012,03,12,01,00,18.80
2012,03,12,01,01,21.30
2012,03,12,01,02,18.50
2012,03,12,01,03,18.30
2012,03,12,01,04,11.70
2012,03,12,01,05,9.70
2012,03,12,01,06,11.30
2012,03,12,01,07,16.20
2012,03,12,01,08,12.60
2012,03,12,01,09,14.20
2012,03,12,01,10,18.80
2012,03,12,01,11,20.00
2012,03,12,01,12,16.80
2012,03,12,01,13,18.70
2012,03,12,01,14,14.70
2012,03,12,01,15,15.60
2012,03,12,01,16,13.80
2012,03,12,01,17,16.10
2012,03,12,01,18,20.10
2012,03,12,01,19,16.30
2012,03,12,01,20,18.10
2012,03,12,01,21,13.90
2012,03,12,01,22,17.60
2012,03,12,01,23,19.10
2012,03,12,01,24,11.60
2012,03,12,01,25,13.20
2012,03,12,01,26,19.30
2012,03,12,01,27,16.70
2012,03,12,01,28,13.70
2012,03,12,01,29,15.00
2012,03,12,01,30,22.00
2012,03,12,01,31,20.00
2012,03,12,01,32,13.50
2012,03,12,01,33,17.20
2012,03,12,01,34,14.40
2012,03,12,01,35,12.60
2012,03,12,01,36,17.90
2012,03,12,01,37,19.00
2012,03,12,01,38,12.70
2012,03,12,01,39,10.50
2012,03,12,01,40,14.60
2012,03,12,01,41,14.50
2012,03,12,01,42,16.70
2012,03,12,01,43,18.60
2012,03,12,01,44,17.50
2012,03,12,01,45,14.70
2012,03,12,01,46,14.20
2012,03,12,01,47,17.50
2012,03,12,01,48,10.90
2012,03,12,01,49,12.10
2012,03,12,01,50,10.20
2012,03,12,01,51,12.00
2012,03,12,01,52,17.00
2012,03,12,01,53,19.20
2012,03,12,01,54,14.90
2012,03,12,01,55,13.80
2012,03,12,01,56,8.40
2012,03,12,01,57,15.20
2012,03,12,01,58,13.10
2012,03,12,01,59,18.00
2012,03,12,02,00,15.20
2012,03,12,02,01,10.50
2012,03,12,02,02,16.60
2012,03,12,02,03,15.60
2012,03,12,02,04,17.50
2012,03,12,02,05,17.10
2012,03,12,02,06,10.90
2012,03,12,02,07,16.70
2012,03,12,02,08,17.00
2012,03,12,02,09,17.10
2012,03,12,02,10,15.90
2012,03,12,02,11,17.90
2012,03,12,02,12,15.90
2012,03,12,02,13,16.20
2012,03,12,02,14,22.20
2012,03,12,02,15,19.10
2012,03,12,02,16,18.10
2012,03,12,02,17,18.00
2012,03,12,02,18,15.90
2012,03,12,02,19,15.70
2012,03,12,02,20,18.30
2012,03,12,02,21,16.70
2012,03,12,02,22,24.50
2012,03,12,02,23,24.80
2012,03,12,02,24,17.50
2012,03,12,02,25,22.10
2012,03,12,02,26,18.30
2012,03,12,02,27,15.80
2012,03,12,02,28,10.10
2012,03,12,02,29,22.60
2012,03,12,02,30,22.00
2012,03,12,02,31,24.10
2012,03,12,02,32,19.20
2012,03,12,02,33,18.20
2012,03,12,02,34,11.00
2012,03,12,02,35,21.40
2012,03,12,02,36,20.40
2012,03,12,02,37,19.90
2012,03,12,02,38,22.00
2012,03,12,02,39,21.00
2012,03,12,02,40,14.20
2012,03,12,02,41,15.00
2012,03,12,02,42,17.00
2012,03,12,02,43,22.20
2012,03,12,02,44,13.40
2012,03,12,02,45,24.60
2012,03,12,02,46,11.30
2012,03,12,02,47,18.70
2012,03,12,02,48,16.80
2012,03,12,02,49,16.90
2012,03,12,02,50,15.90
2012,03,12,02,51,25.20
2012,03,12,02,52,19.80
2012,03,12,02,53,15.70
2012,03,12,02,54,19.30
2012,03,12,02,55,27.60
2012,03,12,02,56,20.80
2012,03,12,02,57,26.00
2012,03,12,02,58,17.90
2012,03,12,02,59,19.00
2012,03,12,03,00,15.30
2012,03,12,03,01,14.90
2012,03,12,03,02,18.90
2012,03,12,03,03,14.90
2012,03,12,03,06,10.10
2012,03,12,03,07,13.80
2012,03,12,03,08,24.10
2012,03,12,03,09,20.10
2012,03,12,03,10,12.60
2012,03,12,03,11,19.90
2012,03,12,03,12,14.30
2012,03,12,03,13,9.40
2012,03,12,03,14,15.00
2012,03,12,03,15,19.80
2012,03,12,03,16,22.80
2012,03,12,03,17,21.80
2012,03,12,03,18,17.30
2012,03,12,03,19,22.80
2012,03,12,03,20,19.50
2012,03,12,03,21,13.00
2012,03,12,03,22,24.70
2012,03,12,03,23,15.80
2012,03,12,03,24,21.10
2012,03,12,03,25,18.10
2012,03,12,03,26,16.50
2012,03,12,03,27,18.20
2012,03,12,03,28,17.00
2012,03,12,03,29,15.00
2012,03,12,03,30,14.90
2012,03,12,03,31,21.40
2012,03,12,03,32,15.00
2012,03,12,03,33,22.80
2012,03,12,03,34,23.60
2012,03,12,03,35,24.80
2012,03,12,03,36,18.40
2012,03,12,03,37,23.00
2012,03,12,03,38,23.20
2012,03,12,03,39,21.40
2012,03,12,03,40,25.20
2012,03,12,03,41,21.70
2012,03,12,03,42,14.40
2012,03,12,03,43,18.60
2012,03,12,03,44,17.10
2012,03,12,03,45,21.40
2012,03,12,03,46,20.30
2012,03,12,03,47,18.80
2012,03,12,03,48,17.50
2012,03,12,03,49,15.80
2012,03,12,03,50,25.70
2012,03,12,03,51,22.80
2012,03,12,03,52,18.50
2012,03,12,03,53,15.40
2012,03,12,03,54,18.40
2012,03,12,03,55,14.60
2012,03,12,03,56,16.30
2012,03,12,03,57,10.80
2012,03,12,03,58,21.60
2012,03,12,03,59,24.20
2012,03,12,04,00,19.60
2012,03,12,04,01,15.50
2012,03,12,04,02,18.30
2012,03,12,04,03,15.00
2012,03,12,04,04,25.80
2012,03,12,04,05,33.40
2012,03,12,04,06,22.40
2012,03,12,04,07,18.00
2012,03,12,04,08,26.80
2012,03,12,04,09,26.20
2012,03,12,04,10,20.50
2012,03,12,04,11,21.10
2012,03,12,04,12,14.70
2012,03,12,04,13,19.10
2012,03,12,04,14,23.80
2012,03,12,04,15,34.40
2012,03,12,04,16,21.10
2012,03,12,04,17,20.20
2012,03,12,04,18,20.70
2012,03,12,04,19,23.90
2012,03,12,04,20,17.30
2012,03,12,04,21,29.00
2012,03,12,04,22,22.90
2012,03,12,04,23,25.60
2012,03,12,04,24,30.20
2012,03,12,04,25,21.20
2012,03,12,04,26,22.00
2012,03,12,04,27,16.20
2012,03,12,04,28,18.80
2012,03,12,04,29,23.80
2012,03,12,04,30,21.50
2012,03,12,04,31,29.10
2012,03,12,04,32,18.90
2012,03,12,04,33,22.00
2012,03,12,04,34,21.90
2012,03,12,04,35,23.70
2012,03,12,04,36,23.70
2012,03,12,04,37,24.50
2012,03,12,04,38,22.50
2012,03,12,04,39,22.10
2012,03,12,04,40,30.70
2012,03,12,04,41,23.60
2012,03,12,04,42,23.90
2012,03,12,04,43,15.50
2012,03,12,04,44,23.40
2012,03,12,04,45,22.40
2012,03,12,04,46,24.80
2012,03,12,04,47,20.80
2012,03,12,04,48,13.30
2012,03,12,04,49,18.30
2012,03,12,04,50,23.60
2012,03,12,04,51,28.00
2012,03,12,04,52,29.40
2012,03,12,04,53,28.00
2012,03,12,04,54,27.40
2012,03,12,04,55,28.60
2012,03,12,04,56,25.40
2012,03,12,04,57,37.30
2012,03,12,04,58,22.70
2012,03,12,04,59,17.70
2012,03,12,05,00,19.30
2012,03,12,05,01,28.80
2012,03,12,05,02,31.90
2012,03,12,05,03,16.60
2012,03,12,05,04,16.70
2012,03,12,05,05,21.20
2012,03,12,05,06,21.10
2012,03,12,05,07,20.10
2012,03,12,05,08,20.10
2012,03,12,05,09,29.00
2012,03,12,05,10,21.60
2012,03,12,05,11,19.50
2012,03,12,05,12,17.90
2012,03,12,05,13,17.80
2012,03,12,05,14,19.40
2012,03,12,05,15,18.00
2012,03,12,05,16,17.20
2012,03,12,05,17,22.40
2012,03,12,05,18,19.80
2012,03,12,05,19,22.60
2012,03,12,05,20,19.40
2012,03,12,05,21,32.10
2012,03,12,05,22,30.30
2012,03,12,05,23,24.10
2012,03,12,05,24,15.90
2012,03,12,05,25,24.20
2012,03,12,05,26,20.80
2012,03,12,05,27,20.60
2012,03,12,05,28,13.00
2012,03,12,05,29,16.30
2012,03,12,05,30,14.60
2012,03,12,05,31,13.40
2012,03,12,05,32,21.50
2012,03,12,05,33,23.20
2012,03,12,05,34,23.70
2012,03,12,05,35,24.90
2012,03,12,05,36,15.50
2012,03,12,05,37,27.00
2012,03,12,05,38,27.80
2012,03,12,05,39,36.00
2012,03,12,05,40,25.40
2012,03,12,05,41,20.30
2012,03,12,05,42,25.50
2012,03,12,05,43,22.20
2012,03,12,05,44,19.50
2012,03,12,05,45,14.80
2012,03,12,05,46,25.80
2012,03,12,05,47,24.50
2012,03,12,05,48,18.70
2012,03,12,05,49,20.20
2012,03,12,05,50,19.00
2012,03,12,05,51,22.90
2012,03,12,05,52,18.90
2012,03,12,05,53,26.20
2012,03,12,05,54,17.80
2012,03,12,05,55,29.60
2012,03,12,05,56,29.80
2012,03,12,05,57,23.60
2012,03,12,05,58,19.40
2012,03,12,05,59,13.60
2012,03,12,06,00,15.40
2012,03,12,06,01,34.90
2012,03,12,06,02,26.70
2012,03,12,06,03,19.30
2012,03,12,06,04,18.20
2012,03,12,06,05,17.60
2012,03,12,06,06,19.50
2012,03,12,06,07,28.70
2012,03,12,06,08,27.20
2012,03,12,06,09,25.60
2012,03,12,06,10,30.30
2012,03,12,06,11,28.40
2012,03,12,06,12,27.60
2012,03,12,06,13,18.40
2012,03,12,06,14,27.80
2012,03,12,06,15,19.60
2012,03,12,06,16,37.20
2012,03,12,06,17,29.90
2012,03,12,06,18,31.40
2012,03,12,06,19,37.20
2012,03,12,06,20,33.50
2012,03,12,06,21,19.90
2012,03,12,06,22,32.00
2012,03,12,06,23,30.60
2012,03,12,06,24,25.30
2012,03,12,06,25,19.60
2012,03,12,06,26,24.00
2012,03,12,06,27,33.30
2012,03,12,06,28,24.50
2012,03,12,06,29,32.30
2012,03,12,06,30,30.10
2012,03,12,06,31,21.60
2012,03,12,06,32,24.00
2012,03,12,06,33,27.40
2012,03,12,06,34,34.40
2012,03,12,06,35,22.90
2012,03,12,06,36,23.90
2012,03,12,06,37,26.40
2012,03,12,06,38,30.70
2012,03,12,06,39,28.20
2012,03,12,06,40,26.60
2012,03,12,06,41,37.20
2012,03,12,06,42,28.60
2012,03,12,06,43,26.10
2012,03,12,06,44,18.90
2012,03,12,06,45,24.40
2012,03,12,06,46,25.10
2012,03,12,06,47,28.70
2012,03,12,06,48,25.00
2012,03,12,06,49,22.40
2012,03,12,06,50,25.70
2012,03,12,06,51,25.30
2012,03,12,06,52,31.60
2012,03,12,06,53,34.30
2012,03,12,06,54,20.10
2012,03,12,06,55,25.70
2012,03,12,06,56,27.00
2012,03,12,06,57,24.20
2012,03,12,06,58,20.30
2012,03,12,06,59,30.60
2012,03,12,07,00,30.40
2012,03,12,07,01,21.90
2012,03,12,07,02,15.30
2012,03,12,07,03,25.70
2012,03,12,07,04,24.90
2012,03,12,07,05,23.00
2012,03,12,07,06,25.70
2012,03,12,07,07,22.30
2012,03,12,07,08,28.00
2012,03,12,07,09,37.60
2012,03,12,07,10,20.50
2012,03,12,07,11,26.20
2012,03,12,07,12,29.90
2012,03,12,07,13,17.20
2012,03,12,07,14,13.80
2012,03,12,07,15,22.90
2012,03,12,07,16,30.20
2012,03,12,07,17,34.00
2012,03,12,07,18,21.60
2012,03,12,07,19,23.90
2012,03,12,07,20,31.50
2012,03,12,07,21,35.30
2012,03,12,07,22,19.50
2012,03,12,07,23,23.50
2012,03,12,07,24,24.70
2012,03,12,07,25,19.40
2012,03,12,07,26,27.80
2012,03,12,07,27,28.90
2012,03,12,07,28,29.00
2012,03,12,07,29,33.90
2012,03,12,07,30,31.40
2012,03,12,07,31,20.20
2012,03,12,07,32,29.30
2012,03,12,07,33,34.40
2012,03,12,07,34,29.50
2012,03,12,07,35,25.70
2012,03,12,07,36,15.40
2012,03,12,07,37,30.70
2012,03,12,07,38,23.30
2012,03,12,07,39,18.80
2012,03,12,07,40,18.50
2012,03,12,07,41,19.60
2012,03,12,07,42,26.10
2012,03,12,07,43,26.00
2012,03,12,07,44,21.00
2012,03,12,07,45,15.30
2012,03,12,07,46,24.70
2012,03,12,07,47,15.80
2012,03,12,07,48,14.60
2012,03,12,07,49,24.80
2012,03,12,07,50,25.30
2012,03,12,07,51,27.80
2012,03,12,07,52,29.50
2012,03,12,07,53,35.50
2012,03,12,07,54,35.60
2012,03,12,07,55,22.20
2012,03,12,07,56,31.80
2012,03,12,07,57,35.60
2012,03,12,07,58,24.70
2012,03,12,07,59,26.50
2012,03,12,08,00,22.40
2012,03,12,08,01,20.90
2012,03,12,08,02,28.40
2012,03,12,08,03,34.40
2012,03,12,08,04,34.00
2012,03,12,08,05,22.50
2012,03,12,08,06,37.30
2012,03,12,08,07,23.30
2012,03,12,08,08,27.00
2012,03,12,08,09,28.40
2012,03,12,08,10,30.80
2012,03,12,08,11,24.60
2012,03,12,08,12,34.60
2012,03,12,08,13,19.80
2012,03,12,08,14,28.00
2012,03,12,08,15,32.30
2012,03,12,08,16,33.00
2012,03,12,08,17,30.40
2012,03,12,08,18,22.00
2012,03,12,08,19,15.10
2012,03,12,08,20,32.00
2012,03,12,08,21,22.00
2012,03,12,08,22,24.00
2012,03,12,08,23,22.40
2012,03,12,08,24,27.90
2012,03,12,08,25,39.60
2012,03,12,08,26,41.00
2012,03,12,08,27,24.70
2012,03,12,08,28,21.60
2012,03,12,08,29,26.90
2012,03,12,08,30,26.40
2012,03,12,08,31,21.20
2012,03,12,08,32,40.30
2012,03,12,08,33,41.00
2012,03,12,08,34,35.30
2012,03,12,08,35,23.60
2012,03,12,08,36,23.20
2012,03,12,08,37,24.90
2012,03,12,08,38,40.30
2012,03,12,08,39,23.50
2012,03,12,08,40,23.50
2012,03,12,08,41,22.40
2012,03,12,08,42,25.80
2012,03,12,08,43,26.60
2012,03,12,08,44,18.20
2012,03,12,08,45,27.20
2012,03,12,08,46,31.50
2012,03,12,08,47,23.70
2012,03,12,08,48,30.00
2012,03,12,08,49,17.70
2012,03,12,08,50,26.50
2012,03,12,08,51,28.80
2012,03,12,08,52,29.60
2012,03,12,08,53,29.40
2012,03,12,08,54,26.90
2012,03,12,08,55,38.60
2012,03,12,08,56,29.10
2012,03,12,08,57,22.10
2012,03,12,08,58,30.90
2012,03,12,08,59,22.90
2012,03,12,09,00,21.60
2012,03,12,09,01,29.30
2012,03,12,09,02,27.80
2012,03,12,09,03,35.60
2012,03,12,09,04,26.20
2012,03,12,09,05,21.50
2012,03,12,09,06,20.80
2012,03,12,09,07,22.80
2012,03,12,09,08,18.80
2012,03,12,09,09,26.20
2012,03,12,09,10,21.20
2012,03,12,09,11,30.10
2012,03,12,09,12,26.00
2012,03,12,09,13,19.60
2012,03,12,09,14,30.10
2012,03,12,09,15,30.10
2012,03,12,09,16,30.60
2012,03,12,09,17,30.30
2012,03,12,09,18,26.70
2012,03,12,09,19,23.60
2012,03,12,09,20,21.30
2012,03,12,09,21,18.50
2012,03,12,09,22,25.10
2012,03,12,09,23,28.10
2012,03,12,09,24,23.80
2012,03,12,09,25,28.60
2012,03,12,09,26,27.80
2012,03,12,09,27,24.20
2012,03,12,09,28,22.50
2012,03,12,09,29,19.50
2012,03,12,09,30,32.80
2012,03,12,09,31,28.40
2012,03,12,09,32,26.80
2012,03,12,09,33,28.80
2012,03,12,09,34,24.90
2012,03,12,09,35,28.10
2012,03,12,09,36,26.70
2012,03,12,09,37,28.40
2012,03,12,09,38,30.10
2012,03,12,09,39,20.90
2012,03,12,09,40,17.90
2012,03,12,09,41,25.40
2012,03,12,09,42,24.10
2012,03,12,09,43,26.50
2012,03,12,09,44,17.20
2012,03,12,09,45,21.70
2012,03,12,09,46,30.70
2012,03,12,09,47,24.20
2012,03,12,09,48,23.40
2012,03,12,09,49,14.60
2012,03,12,09,50,15.20
2012,03,12,09,51,20.00
2012,03,12,09,52,26.00
2012,03,12,09,53,26.20
2012,03,12,09,54,28.40
2012,03,12,09,55,18.10
2012,03,12,09,56,22.80
2012,03,12,09,57,27.20
2012,03,12,09,58,16.70
2012,03,12,09,59,19.70
2012,03,12,10,00,25.60
2012,03,12,10,01,24.00
2012,03,12,10,02,25.70
2012,03,12,10,03,17.10
2012,03,12,10,04,16.00
2012,03,12,10,05,18.50
2012,03,12,10,06,14.40
2012,03,12,10,07,18.90
2012,03,12,10,08,13.70
2012,03,12,10,09,22.50
2012,03,12,10,10,22.40
2012,03,12,10,11,17.10
2012,03,12,10,12,13.40
2012,03,12,10,13,16.70
2012,03,12,10,14,13.10
2012,03,12,10,15,21.20
2012,03,12,10,16,19.70
2012,03,12,10,17,15.60
2012,03,12,10,18,16.30
2012,03,12,10,19,18.30
2012,03,12,10,20,29.20
2012,03,12,10,21,28.40
2012,03,12,10,22,24.30
2012,03,12,10,23,28.30
2012,03,12,10,24,20.50
2012,03,12,10,25,21.70
2012,03,12,10,26,21.10
2012,03,12,10,27,16.70
2012,03,12,10,28,15.30
2012,03,12,10,29,30.70
2012,03,12,10,30,15.40
2012,03,12,10,31,19.70
2012,03,12,10,32,12.60
2012,03,12,10,33,17.90
2012,03,12,10,34,16.50
2012,03,12,10,35,24.20
2012,03,12,10,36,28.80
2012,03,12,10,37,22.90
2012,03,12,10,38,23.10
2012,03,12,10,39,26.40
2012,03,12,10,40,22.40
2012,03,12,10,41,21.00
2012,03,12,10,42,13.80
2012,03,12,10,43,21.70
2012,03,12,10,44,22.40
2012,03,12,10,45,24.20
2012,03,12,10,46,25.10
2012,03,12,10,47,20.10
2012,03,12,10,48,19.90
2012,03,12,10,49,21.20
2012,03,12,10,50,19.80
2012,03,12,10,51,17.80
2012,03,12,10,52,22.00
2012,03,12,10,53,21.80
2012,03,12,10,54,29.10
2012,03,12,10,55,23.30
2012,03,12,10,56,15.40
2012,03,12,10,57,20.20
2012,03,12,10,58,30.50
2012,03,12,10,59,25.20
2012,03,12,11,00,19.20
2012,03,12,11,01,19.70
2012,03,12,11,02,14.30
2012,03,12,11,03,20.60
2012,03,12,11,04,18.30
2012,03,12,11,05,10.90
2012,03,12,11,06,14.80
2012,03,12,11,07,10.50
2012,03,12,11,08,13.10
2012,03,12,11,09,11.50
2012,03,12,11,10,12.70
2012,03,12,11,11,11.40
2012,03,12,11,12,8.20
2012,03,12,11,13,12.50
2012,03,12,11,14,16.70
2012,03,12,11,15,10.50
2012,03,12,11,16,19.10
2012,03,12,11,17,14.50
2012,03,12,11,18,16.70
2012,03,12,11,19,24.10
2012,03,12,11,20,14.20
2012,03,12,11,21,13.70
2012,03,12,11,22,15.90
2012,03,12,11,23,11.70
2012,03,12,11,24,10.60
2012,03,12,11,25,18.40
2012,03,12,11,26,13.70
2012,03,12,11,27,13.30
2012,03,12,11,28,17.70
2012,03,12,11,29,16.40
2012,03,12,11,30,18.50
2012,03,12,11,31,22.20
2012,03,12,11,32,22.60
2012,03,12,11,33,14.00
2012,03,12,11,34,10.40
2012,03,12,11,35,16.30
2012,03,12,11,36,14.60
2012,03,12,11,37,12.20
2012,03,12,11,38,14.00
2012,03,12,11,39,5.30
2012,03,12,11,40,8.40
2012,03,12,11,41,14.10
2012,03,12,11,42,17.80
2012,03,12,11,43,14.00
2012,03,12,11,44,20.20
2012,03,12,11,45,15.60
2012,03,12,11,46,15.90
2012,03,12,11,47,15.30
2012,03,12,11,48,23.30
2012,03,12,11,49,13.80
2012,03,12,11,50,13.40
2012,03,12,11,51,22.20
2012,03,12,11,52,13.40
2012,03,12,11,53,20.70
2012,03,12,11,54,19.20
2012,03,12,11,55,10.10
2012,03,12,11,56,12.00
2012,03,12,11,57,16.60
2012,03,12,11,58,13.30
2012,03,12,11,59,15.80
2012,03,12,12,00,11.10
2012,03,12,12,01,11.30
2012,03,12,12,02,9.30
2012,03,12,12,03,11.80
2012,03,12,12,04,10.90
2012,03,12,12,05,13.10
2012,03,12,12,06,12.70
2012,03,12,12,07,12.70
2012,03,12,12,08,16.70
2012,03,12,12,09,12.20
2012,03,12,12,10,12.30
2012,03,12,12,11,7.40
2012,03,12,12,12,14.60
2012,03,12,12,13,14.80
2012,03,12,12,14,12.90
2012,03,12,12,15,12.80
2012,03,12,12,16,13.90
2012,03,12,12,17,13.00
2012,03,12,12,18,13.60
2012,03,12,12,19,7.50
2012,03,12,12,20,14.50
2012,03,12,12,21,14.30
2012,03,12,12,22,11.10
2012,03,12,12,23,10.80
2012,03,12,12,24,9.60
2012,03,12,12,25,5.90
2012,03,12,12,26,5.60
2012,03,12,12,27,11.30
2012,03,12,12,28,11.80
2012,03,12,12,29,10.10
2012,03,12,12,30,15.00
2012,03,12,12,31,16.70
2012,03,12,12,32,15.60
2012,03,12,12,33,13.50
2012,03,12,12,34,15.30
2012,03,12,12,35,16.70
2012,03,12,12,36,7.20
2012,03,12,12,37,10.60
2012,03,12,12,38,20.00
2012,03,12,12,39,12.60
2012,03,12,12,40,9.30
2012,03,12,12,41,5.50
2012,03,12,12,42,8.90
2012,03,12,12,43,8.60
2012,03,12,12,44,4.30
2012,03,12,12,45,9.50
2012,03,12,12,46,8.00
2012,03,12,12,47,11.70
2012,03,12,12,48,5.60
2012,03,12,12,49,6.00
2012,03,12,12,50,4.80
2012,03,12,12,51,7.30
2012,03,12,12,52,20.00
2012,03,12,12,53,15.70
2012,03,12,12,54,12.40
2012,03,12,12,55,9.30
2012,03,12,12,56,6.40
2012,03,12,12,57,4.30
2012,03,12,12,58,8.00
2012,03,12,12,59,12.30
2012,03,12,13,00,8.50
2012,03,12,13,01,11.70
2012,03,12,13,02,8.50
2012,03,12,13,03,11.20
2012,03,12,13,04,10.90
2012,03,12,13,05,8.30
2012,03,12,13,06,11.00
2012,03,12,13,07,10.90
2012,03,12,13,08,7.60
2012,03,12,13,09,7.80
2012,03,12,13,10,11.30
2012,03,12,13,11,9.50
2012,03,12,13,12,9.20
2012,03,12,13,13,8.40
2012,03,12,13,14,5.70
2012,03,12,13,15,8.60
2012,03,12,13,16,10.00
2012,03,12,13,17,7.30
2012,03,12,13,18,7.30
2012,03,12,13,19,5.30
2012,03,12,13,20,5.00
2012,03,12,13,21,8.30
2012,03,12,13,22,5.00
2012,03,12,13,23,2.90
2012,03,12,13,24,3.90
2012,03,12,13,25,2.60
2012,03,12,13,26,8.90
2012,03,12,13,27,10.20
2012,03,12,13,28,9.40
2012,03,12,13,29,5.40
2012,03,12,13,30,3.80
2012,03,12,13,31,6.80
2012,03,12,13,32,5.30
2012,03,12,13,33,6.30
2012,03,12,13,34,4.80
2012,03,12,13,35,2.60
2012,03,12,13,36,1.50
2012,03,12,13,37,3.60
2012,03,12,13,38,6.00
2012,03,12,13,39,6.00
2012,03,12,13,40,6.30
2012,03,12,13,41,5.30
2012,03,12,13,42,6.40
2012,03,12,13,43,6.00
2012,03,12,13,44,6.90
2012,03,12,13,45,4.70
2012,03,12,13,46,7.50
2012,03,12,13,47,9.70
2012,03,12,13,48,7.60
2012,03,12,13,49,8.60
2012,03,12,13,50,6.80
2012,03,12,13,51,10.20
2012,03,12,13,52,11.80
2012,03,12,13,53,13.00
2012,03,12,13,54,12.60
2012,03,12,13,55,15.30
2012,03,12,13,56,18.20
2012,03,12,13,57,11.50
2012,03,12,13,58,20.60
2012,03,12,13,59,13.80
2012,03,12,14,00,9.30
2012,03,12,14,01,5.60
2012,03,12,14,02,9.10
2012,03,12,14,03,6.40
2012,03,12,14,04,11.70
2012,03,12,14,05,11.40
2012,03,12,14,06,4.20
2012,03,12,14,07,3.80
2012,03,12,14,08,7.80
2012,03,12,14,09,10.10
2012,03,12,14,10,11.80
2012,03,12,14,11,11.30
2012,03,12,14,12,12.00
2012,03,12,14,13,6.00
2012,03,12,14,14,5.30
2012,03,12,14,15,1.20
2012,03,12,14,16,3.50
2012,03,12,14,17,5.50
2012,03,12,14,18,9.30
2012,03,12,14,19,5.10
2012,03,12,14,20,6.60
2012,03,12,14,21,11.70
2012,03,12,14,22,8.90
2012,03,12,14,23,7.20
2012,03,12,14,24,9.30
2012,03,12,14,25,6.20
2012,03,12,14,26,10.20
2012,03,12,14,27,12.60
2012,03,12,14,28,15.80
2012,03,12,14,29,11.20
2012,03,12,14,30,11.20
2012,03,12,14,31,15.00
2012,03,12,14,32,10.50
2012,03,12,14,33,10.30
2012,03,12,14,34,10.50
2012,03,12,14,35,11.00
2012,03,12,14,36,7.50
2012,03,12,14,37,8.10
2012,03,12,14,38,10.00
2012,03,12,14,39,11.80
2012,03,12,14,40,14.20
2012,03,12,14,41,13.40
2012,03,12,14,42,13.60
2012,03,12,14,43,9.50
2012,03,12,14,44,8.90
2012,03,12,14,45,6.80
2012,03,12,14,46,9.30
2012,03,12,14,47,8.40
2012,03,12,14,48,9.00
2012,03,12,14,49,9.40
2012,03,12,14,50,10.00
2012,03,12,14,51,13.30
2012,03,12,14,52,14.10
2012,03,12,14,53,9.50
2012,03,12,14,54,12.10
2012,03,12,14,55,11.70
2012,03,12,14,56,8.70
2012,03,12,14,57,9.10
2012,03,12,14,58,9.10
2012,03,12,14,59,6.90
2012,03,12,15,00,12.40
2012,03,12,15,01,6.30
2012,03,12,15,02,5.20
2012,03,12,15,03,3.90
2012,03,12,15,04,7.20
2012,03,12,15,05,8.80
2012,03,12,15,06,2.40
2012,03,12,15,07,3.60
2012,03,12,15,08,5.50
2012,03,12,15,09,6.90
2012,03,12,15,10,7.00
2012,03,12,15,11,5.10
2012,03,12,15,12,7.50
2012,03,12,15,13,3.20
2012,03,12,15,14,7.60
2012,03,12,15,15,7.20
2012,03,12,15,16,9.60
2012,03,12,15,17,7.00
2012,03,12,15,18,6.40
2012,03,12,15,19,8.10
2012,03,12,15,20,13.50
2012,03,12,15,21,9.80
2012,03,12,15,22,5.80
2012,03,12,15,23,3.00
2012,03,12,15,24,7.60
2012,03,12,15,25,5.80
2012,03,12,15,26,2.70
2012,03,12,15,27,3.30
2012,03,12,15,28,7.70
2012,03,12,15,29,8.70
2012,03,12,15,30,5.50
2012,03,12,15,31,6.00
2012,03,12,15,32,7.70
2012,03,12,15,33,7.20
2012,03,12,15,34,4.60
2012,03,12,15,35,3.40
2012,03,12,15,36,7.50
2012,03,12,15,37,9.00
2012,03,12,15,38,6.90
2012,03,12,15,39,9.10
2012,03,12,15,40,9.60
2012,03,12,15,41,7.60
2012,03,12,15,42,6.10
2012,03,12,15,43,4.70
2012,03,12,15,44,4.70
2012,03,12,15,45,2.90
2012,03,12,15,46,4.80
2012,03,12,15,47,8.10
2012,03,12,15,48,4.10
2012,03,12,15,49,3.10
2012,03,12,15,50,2.20
2012,03,12,15,51,4.30
2012,03,12,15,52,4.50
2012,03,12,15,53,3.00
2012,03,12,15,54,9.50
2012,03,12,15,55,8.80
2012,03,12,15,56,8.20
2012,03,12,15,57,12.70
2012,03,12,15,58,11.20
2012,03,12,15,59,11.40
2012,03,12,16,00,12.10
2012,03,12,16,01,8.10
2012,03,12,16,02,8.10
2012,03,12,16,03,14.20
2012,03,12,16,04,8.50
2012,03,12,16,05,12.70
2012,03,12,16,06,9.30
2012,03,12,16,07,8.10
2012,03,12,16,08,14.80
2012,03,12,16,09,14.00
2012,03,12,16,10,11.30
2012,03,12,16,11,8.20
2012,03,12,16,12,5.10
2012,03,12,16,13,3.70
2012,03,12,16,14,2.30
2012,03,12,16,15,4.80
2012,03,12,16,16,6.10
2012,03,12,16,17,5.60
2012,03,12,16,18,2.50
2012,03,12,16,19,5.50
2012,03,12,16,20,4.20
2012,03,12,16,21,7.40
2012,03,12,16,22,7.10
2012,03,12,16,23,8.90
2012,03,12,16,24,10.90
2012,03,12,16,25,7.50
2012,03,12,16,26,5.30
2012,03,12,16,27,5.90
2012,03,12,16,28,6.80
2012,03,12,16,29,4.00
2012,03,12,16,30,8.00
2012,03,12,16,31,9.60
2012,03,12,16,32,10.90
2012,03,12,16,33,6.40
2012,03,12,16,34,8.40
2012,03,12,16,35,6.40
2012,03,12,16,36,8.00
2012,03,12,16,37,7.10
2012,03,12,16,38,7.70
2012,03,12,16,39,4.10
2012,03,12,16,40,5.60
2012,03,12,16,41,2.30
2012,03,12,16,42,6.40
2012,03,12,16,43,7.10
2012,03,12,16,44,7.40
2012,03,12,16,45,3.60
2012,03,12,16,46,3.60
2012,03,12,16,47,6.20
2012,03,12,16,48,4.60
2012,03,12,16,49,5.60
2012,03,12,16,50,6.50
2012,03,12,16,51,5.10
2012,03,12,16,52,6.70
2012,03,12,16,53,8.10
2012,03,12,16,54,8.10
2012,03,12,16,55,6.10
2012,03,12,16,56,9.70
2012,03,12,16,57,5.90
2012,03,12,16,58,5.60
2012,03,12,16,59,9.30
2012,03,12,17,00,6.90
2012,03,12,17,01,5.80
2012,03,12,17,02,5.70
2012,03,12,17,03,2.80
2012,03,12,17,04,5.90
2012,03,12,17,05,9.50
2012,03,12,17,06,9.70
2012,03,12,17,07,6.30
2012,03,12,17,08,3.90
2012,03,12,17,09,3.70
2012,03,12,17,10,1.70
2012,03,12,17,11,3.20
2012,03,12,17,12,7.50
2012,03,12,17,13,5.50
2012,03,12,17,14,2.10
2012,03,12,17,15,4.70
2012,03,12,17,16,5.90
2012,03,12,17,17,7.30
2012,03,12,17,18,10.50
2012,03,12,17,19,6.30
2012,03,12,17,20,5.60
2012,03,12,17,21,7.20
2012,03,12,17,22,8.10
2012,03,12,17,23,6.70
2012,03,12,17,24,5.50
2012,03,12,17,25,3.40
2012,03,12,17,26,5.20
2012,03,12,17,27,9.00
2012,03,12,17,28,8.80
2012,03,12,17,29,7.40
2012,03,12,17,30,7.70
2012,03,12,17,31,6.80
2012,03,12,17,32,3.60